Tracking 30923 objects as of 1-Jul-2025
HD Live streaming from Space Station
objects crossing your sky now

BREEZE-M DEB (TANK)

Track BREEZE-M DEB (TANK) now!
10-day predictions


NORAD ID: 28926
Int'l Code: 2005-052C
Perigee: 294.3 km
Apogee: 13,851.3 km
Inclination: 49.5 °
Period: 258.5 minutes
Semi major axis: 13443 km
RCS: 5.3594 m2 (large)
Launch date: December 29, 2005
Source: Commonwealth of Independent States (former USSR) (CIS)
Launch site: TYURATAM MISSILE AND SPACE COMPLEX (TTMTR)

Note: This is SATELLITE DEBRIS
Your satellite tracking list
Your tracking list is empty




NASA's NSSDC Master Catalog

Two Line Element Set (TLE):
1 28926U 05052C   25181.45805507  .00004525  00000-0  59797-3 0  9996
2 28926  49.5418 267.2349 5042097 105.9091 313.3925  5.56953320375903
Source of the keplerian elements: AFSPC